BM6HML-1 Weather Reports


time (UTC)temp
C
wind
direction
speed
KPH
gust
KPH
rain 1hr
cm
rain 24hr
cm
rain mn
cm
humidity
%
barometer
mb
20260505181419 31 0.0 0.0 0.00 0.00 0.00 71 1010.6
20260505175420 31 0.0 0.0 0.00 0.00 0.00 71 1010.4
20260505173419 31 0.0 0.0 0.00 0.00 0.00 72 1010.5
20260505171420 31 0.0 0.0 0.00 0.00 0.00 72 1010.8
20260505165419 31 0.0 0.0 0.00 0.00 0.00 70 1010.8
20260505163420 31 0.0 0.0 0.00 0.00 0.00 70 1010.8
20260505161420 31 0.0 0.0 0.00 0.00 0.00 70 1011.1
20260505151419 31 0.0 0.0 0.00 0.00 0.00 71 1011.5
20260505123420 31 0.0 0.0 0.00 0.00 0.00 69 1011.4
20260505121420 31 0.0 0.0 0.00 0.00 0.00 69 1011.4
20260505115419 31 0.0 0.0 0.00 0.00 0.00 69 1011.3
20260505113420 31 0.0 0.0 0.00 0.00 0.00 68 1011.1
20260505111420 31 0.0 0.0 0.00 0.00 0.00 68 1011.2
20260505101419 31 0.0 0.0 0.00 0.00 0.00 69 1011.2
20260505095420 31 0.0 0.0 0.00 0.00 0.00 70 1011.2
20260505093420 31 0.0 0.0 0.00 0.00 0.00 70 1011.0
20260505091419 31 0.0 0.0 0.00 0.00 0.00 70 1010.8
20260505085420 31 0.0 0.0 0.00 0.00 0.00 69 1010.6
20260505083419 31 0.0 0.0 0.00 0.00 0.00 69 1010.6
20260505081420 31 0.0 0.0 0.00 0.00 0.00 69 1010.5
20260505075419 31 0.0 0.0 0.00 0.00 0.00 69 1010.6
20260505073420 31 0.0 0.0 0.00 0.00 0.00 69 1010.7
20260505071420 31 0.0 0.0 0.00 0.00 0.00 69 1010.8
20260505065420 31 0.0 0.0 0.00 0.00 0.00 70 1010.6
20260505063420 31 0.0 0.0 0.00 0.00 0.00 71 1010.8
20260505061419 31 0.0 0.0 0.00 0.00 0.00 74 1010.9
20260505055420 30 0.0 0.0 0.00 0.00 0.00 75 1011.1
20260505053419 31 0.0 0.0 0.00 0.00 0.00 74 1011.3
20260505051420 31 0.0 0.0 0.00 0.00 0.00 74 1011.6
20260505041420 30 0.0 0.0 0.00 0.00 0.00 74 1012.4
20260505035419 31 0.0 0.0 0.00 0.00 0.00 69 1012.7
20260505033420 31 0.0 0.0 0.00 0.00 0.00 68 1012.7
20260505031420 31 0.0 0.0 0.00 0.00 0.00 69 1012.9
20260505025419 31 0.0 0.0 0.00 0.00 0.00 68 1012.7
20260505023420 31 0.0 0.0 0.00 0.00 0.00 68 1013.2
20260505021419 31 0.0 0.0 0.00 0.00 0.00 68 1013.4
20260505015420 31 0.0 0.0 0.00 0.00 0.00 68 1013.6
20260505013420 31 0.0 0.0 0.00 0.00 0.00 68 1013.6
20260505011419 31 0.0 0.0 0.00 0.00 0.00 68 1013.4
20260505005420 31 0.0 0.0 0.00 0.00 0.00 67 1013.7
20260505003419 31 0.0 0.0 0.00 0.00 0.00 66 1013.4
20260505001420 31 0.0 0.0 0.00 0.00 0.00 66 1013.2
20260504235420 31 0.0 0.0 0.00 0.00 0.00 66 1013.1
20260504233420 31 0.0 0.0 0.00 0.00 0.00 67 1013.1
20260504231420 31 0.0 0.0 0.00 0.00 0.00 67 1013.0
20260504225419 31 0.0 0.0 0.00 0.00 0.00 67 1012.8
20260504223420 31 0.0 0.0 0.00 0.00 0.00 68 1012.6
20260504221420 31 0.0 0.0 0.00 0.00 0.00 68 1012.5
20260504215420 31 0.0 0.0 0.00 0.00 0.00 68 1012.2
20260504213420 31 0.0 0.0 0.00 0.00 0.00 68 1012.1
20260504211419 31 0.0 0.0 0.00 0.00 0.00 67 1011.9
20260504205420 31 0.0 0.0 0.00 0.00 0.00 67 1011.8
20260504203420 31 0.0 0.0 0.00 0.00 0.00 67 1011.7
20260504201420 31 0.0 0.0 0.00 0.00 0.00 66 1011.8
20260504195420 31 0.0 0.0 0.00 0.00 0.00 66 1011.6
20260504193420 32 0.0 0.0 0.00 0.00 0.00 65 1011.7
20260504191419 32 0.0 0.0 0.00 0.00 0.00 65 1011.6
20260504185420 32 0.0 0.0 0.00 0.00 0.00 64 1011.6
20260504183420 32 0.0 0.0 0.00 0.00 0.00 64 1011.9